Погода в Новом Каракане

Россия / Кемеровская область (Кузбасс)     54°23′32″N   86°42′27″E
В апреле 2022 года жителям России запретили посещать сайт meteo.paraplan.net по решению Генеральной прокуратуры. Аудитория сайта уменьшилась в 10 раз. Владельцы сайта не видят смысла в поддержке погодного сервера в таких условиях. Сайт будет закрыт в октябре.
темп.,
°C
ветер,
м/с
пор.,
м/с
влажн.,
%
обл.,
%
осадки,
мм/ч
давл.,
гПа
погр.,
м
30 сентября, пт
пт3001:00−3юз4997100 0.3 1021499
04:00−2юз4989100 0.6 1021460
07:00−3ююз4987100 0.6 1022391
10:00−2ююз6989100 0.4 1023740
13:00+1ююз6772100 0.8 10231059
16:00+1ю5671100 0.2 10241011
19:00−1юв368846 0.3 1026172
22:00−3вюв369737 0.0 1028174
1 октября, сб
сб101:00−4в239675 0.0 102968
04:00−4в249794 0.0 1030102
07:00−4всв119699 0.1 103210
10:00−1юз008380 0.1 1034406
13:00+1юз0070100 0.1 1035886
16:00+2сз2264100 0.1 1035895
19:000сз248138 0.1 1037106
22:00−2з118443 0.0 103810
2 октября, вс
вс201:00−2юз1184100 0.0 103910
04:00−2ююз118899 0.0 104015
07:00−3юв119363 0.0 104010
10:000в117927 0.0 1041335
13:00+3св116481 0.0 1040931
16:00+4с325969 0.0 10391022
19:00−1с36895 0.0 1040103
22:00−3с34925 0.0 104071
3 октября, пн
пн301:00−3с229029 0.0 103924
04:00−3ссв11895 0.0 103812
07:00−3ссв11885 0.0 103710
10:00+1ссв11665 0.0 1037221
13:00+6с22505 0.0 1035623
16:00+7с33485 0.0 1034794
19:00+1ссз33780 0.0 103422
22:000ссз22840 0.0 103413
4 октября, вт
вт401:00−1ссз11825 0.0 103310
04:00−2сз11825 0.0 103310
07:00−2сз118281 0.0 103310
10:00+2сз116374 0.0 1034209
13:00+7сз11485 0.0 1033543
16:00+8ссз22475 0.0 1032694
19:00+2ссз22705 0.0 103313
22:00+1сз11750 0.0 103310